星链-35845(STARLINK-35845)

导读 | 豆包AI

STARLINK-35849是美国星链(Starlink)项目的卫星,于2025年11月6日发射,属于SpaceX打造的低轨卫星互联网星座组网卫星。它将和其他星链卫星协同,为全球提供高速宽带互联网服务,尤其覆盖偏远地区,进一步扩充星链星座的服务覆盖范围与通信容量。

Basic Information
目录编号:
66348
目录名称:
STARLINK-35849
国际标识:
2025-254A
轨道中心:
EARTH
卫星名称:
星链-35845
卫星全名:
星链-35845(STARLINK-35845)
卫星状态:
在轨 (已飞行174 天)
发射日期:
2025-11-06 UTC
国别 :
美国 (US)
星等 :
--
Orbit Information
数据来源 国际轨道数据 AOE轨道数据
星历时间 2026-04-29T06:16:49+0800
6小时前
查看轨道信息
2026-04-22T23:00:00+0800
6天前
查看轨道信息
半长轴 6853.296km 6853.446km
偏心率 0.000136 0.00014
轨道倾角 53.162° 53.158°
近地点辐角 76.566° 80.279°
升交点赤经 359.371° 28.654°
平近点角 283.549° 97.163°
近地点 474.226km 474.349km
远地点 476.092km 476.269km
周期 94.104分钟 94.107分钟
每日圈数 15.302188 15.301688
Detailed Information
固有亮度:
5
最大亮度:
2.5
卫星平台:
Starlink V1.0
覆盖范围:
全球
运营商:
太空探索技术公司
运营商所在国:
美国
制造商(研发单位):
太空探索技术公司
制造商所在国:
美国
使用方式:
暂无
Satellite Introduction
Starlink 计划是 SpaceX 推出的全球卫星互联网项目,通过发射低轨道卫星,为全球尤其是偏远地区提供高速、低延迟的互联网服务。自 2019 年起,Starlink 已部署数千颗卫星,旨在缩小全球数字鸿沟,推动互联网普及。该项目还为军事、航空等行业提供通信支持,带来广泛经济效益。
2D Orbit Map
3D Orbit Map
Orbit Altitude Analysis Chart
Orbit Inclination Analysis Chart
Orbit Comprehensive Analysis Chart
View Comprehensive Chart